Regional Weather Roundup
Issued by NWS Boston, MA

Home | Current Version | Previous Version | Text Only | Print | Product List | Glossary On
Versions: 1 2 3 4 5 6 7 8 9 10 11 12 13 14 15 16 17 18 19 20 21 22 23 24 25 26 27
000
ASUS41 KBOX 251910
RWRBOX

REGIONAL WEATHER ROUNDUP
NATIONAL WEATHER SERVICE TAUNTON MA
300 PM EDT MON SEP 25 2017

NOTE:  "FAIR" INDICATES FEW OR NO CLOUDS BELOW 12,000 FEET WITH NO
SIGNIFICANT WEATHER AND/OR OBSTRUCTIONS TO VISIBILITY.

MAZALL-252000-
EASTERN MASSACHUSETTS

CITY           SKY/WX    TMP DP  RH WIND       PRES   REMARKS
BOSTON         MOSUNNY   77  61  57 E10       30.07F
BEVERLY        SUNNY     79  64  60 SE9       30.06F
LAWRENCE       SUNNY     89  70  53 E3        30.07F HX  94
BEDFORD        MOSUNNY   87  63  44 SE7       30.05F
BLUE HILL        N/A     82  64  54 E9        30.08F
NORWOOD        MOSUNNY   87  68  52 NE7       30.04F HX  90
MARSHFIELD     SUNNY     77  68  73 NE6       30.07F
PLYMOUTH       SUNNY     81  64  56 E7        30.06F
TAUNTON        SUNNY     86  64  47 SE6       30.04F
NEW BEDFORD    SUNNY     81  68  64 S6        30.05F
$$

MAZALL-252000-
CAPE COD AND THE ISLANDS

CITY           SKY/WX    TMP DP  RH WIND       PRES   REMARKS
FALMOUTH       SUNNY     77  70  78 SE10      30.07F
HYANNIS        MOSUNNY   74  68  81 SE6       30.06F
CHATHAM        CLOUDY    69  67  93 E5        30.08F
PROVINCETOWN   SUNNY     69  64  84 NE9       30.07F
NANTUCKET      CLOUDY    70  67  90 E6        30.06F
MARTHAS VNYRD  CLOUDY    75  68  78 E8        30.06F
$$

MAZALL-252000-
CENTRAL AND WESTERN MASSACHUSETTS

CITY           SKY/WX    TMP DP  RH WIND       PRES   REMARKS
WORCESTER      MOSUNNY   83  66  56 E6        30.09F
FITCHBURG      SUNNY     89  69  51 SE7       30.07F HX  93
ORANGE         MOSUNNY   89  67  47 E9        30.06F HX  92
SPRINGFIELD    MOSUNNY   91  68  47 SE3       30.03F HX  94
WESTFIELD      SUNNY     90  67  46 SE3       30.03F HX  93
NORTH ADAMS    SUNNY     88  65  46 SE6       30.05F HX  90
PITTSFIELD     CLOUDY    87  65  47 S7        30.07F
$$

RIZALL-252000-
RHODE ISLAND

CITY           SKY/WX    TMP DP  RH WIND       PRES   REMARKS
PROVIDENCE     MOSUNNY   81  68  64 S13       30.06F
NEWPORT        SUNNY     79  68  69 E6        30.06F
BLOCK ISLAND   SUNNY     72  67  84 NE6       30.07F
SMITHFIELD     PTSUNNY   86  68  54 VRB7      30.07F
WESTERLY       SUNNY     74  66  76 SE6       30.07F
$$

CTZALL-252000-
CONNECTICUT

CITY           SKY/WX    TMP DP  RH WIND       PRES   REMARKS
BRADLEY INTL   MOSUNNY   88  68  51 N5        30.04F HX  91
HARTFORD       MOSUNNY   88  69  53 SE3       30.02F HX  92
BRIDGEPORT     SUNNY     79  66  64 E7        30.04F
DANBURY        PTSUNNY   88  68  51 VRB5      30.05F HX  91
GROTON         SUNNY     76  64  66 SE7       30.05F
NEW HAVEN      MOSUNNY   82  63  52 SE6       30.05F
CHESTER        FAIR      86  64  48 S6        30.06F
MERIDEN        PTSUNNY   88  65  46 VRB3      30.03F HX  90
WILLIMANTIC    PTSUNNY   88  67  49 E5        30.04F HX  91
OXFORD         MOSUNNY   85  68  56 E6        30.07F
$$

MEZ002-015-021-024-NHZ003-005-008-011-012-014-VTZ005-008-252000-
NORTHERN NEW ENGLAND

CITY           SKY/WX    TMP DP  RH WIND       PRES   REMARKS
PORTLAND ME    MOSUNNY   82  68  62 SE8       30.07F
BANGOR ME      MOSUNNY   88  69  53 S9        30.04F HX  92
CONCORD NH     MOSUNNY   88  69  53 VRB7      30.06F HX  92
MANCHESTER NH  MOSUNNY   88  69  53 SE7       30.04F HX  92
NASHUA NH      MOSUNNY   87  71  58 VRB3      30.06F HX  93
PORTSMOUTH NH  MOSUNNY   84  69  60 SE5       30.05F
JAFFREY NH     SUNNY     85  69  58 CALM      30.10F
KEENE NH       MOSUNNY   92  68  45 VRB3      30.05F HX  96
BURLINGTON VT  MOSUNNY   91  67  44 W3        30.04F HX  94
MT. WASHINGTON PTSUNNY   61  57  88 VRB1        N/A
$$

NYZ052-076-252000-
EASTERN NEW YORK

CITY           SKY/WX    TMP DP  RH WIND       PRES   REMARKS
ALBANY         MOSUNNY   90  67  46 N6        30.04F HX  93
NEW YORK CITY  MOSUNNY   84  68  58 NE9       30.02F
$$

ANZALL-252000-
MARINE OBSERVATIONS

STATION/POSITION TIME  TEMP    WIND        PRES    VSBY  WAVE
                       AIR SEA DIR/SP/G                  HT/PER
                 (UTC) (F)     (DEG/KT/KT) (MB)    (MI)  (FT/S)
BOSTON BUOY      1850   67 66  110/  8/  8 1018.1F         2/11
BUZZARDS BAY     1800   66     310/  4/  4 1018.6F
NANTUCKET SOUND  1850   62 62   40/  6/  6 1018.1F         1/14
MASS BAY-STELLWA 1804   68 63  140/  4/  6 1017.9F         2/11
ISLE OF SHOALS   1900   69     130/  5/  6 1017.9F
S OF BLOCK IS    NOT AVBL
$$

......................KEY.........................
  SKY/WX - SKY CONDITION/PRESENT WEATHER
  TMP    - TEMPERATURE IN FAHRENHEIT
  DWPT   - DEWPOINT IN FAHRENHEIT
  RH     - RELATIVE HUMIDITY IN PERCENT
  WIND   - DIRECTION AND SPEED IN MPH
  PRES   - MEAN SEA LEVEL PRESSURE IN INCHES OF HG
  WCI    - WIND CHILL INDEX
  VSB    - VISIBILITY IN MILES
  HX     - HEAT INDEX
  TC     - TEMPERATURE IN CELSIUS
  VRB    - VARIABLE WIND DIRECTION
  N/A    - NOT AVAILABLE




USA.gov is the U.S. government's official web portal to all federal, state and local government web resources and services.